Temp_Advection
nan nan nan nan nan nan nan nan nan nan nan nan nan nan nan nan nan nan nan nan nan nan nan nan nan nan nan nan nan nan nan nan nan nan nan nan nan nan nan nan nan nan
nan 0 -0 -0 -0 -0 0 0 0 -0 -0 -0 -0 -0 -0 -0 -0 -0 -0 -0 -0 -1 -1 -1 -1 -1 -1 -0 0 0 0 0 0 -0 -0 -0 0 0 0 -0 -0 nan
nan 0 0 -0 -0 0 0 0 0 -0 -0 -0 -0 -0 -0 -0 -0 -0 -0 -0 -0 -0 -0 -1 -1 -1 -1 -1 -0 0 0 0 0 -0 -0 -0 0 0 0 0 0 nan
nan 0 0 -0 -0 0 0 0 0 -0 -0 -0 -0 -0 -0 -0 -0 -0 -0 -0 -0 -0 -0 -0 -0 -0 -1 -1 -1 -1 0 0 0 0 -0 -0 0 0 0 0 0 nan
nan 0 0 0 0 0 0 0 0 0 -0 -0 -0 -0 -0 -0 -0 -0 -0 -0 -0 -0 -0 -0 -0 -0 -0 -0 -1 -1 -1 -0 0 0 0 0 0 0 0 0 0 nan
nan 0 0 0 0 0 0 0 0 0 0 0 -0 -0 -0 -0 -0 -0 -0 -0 -0 -0 -0 -0 -0 -1 -0 -0 -0 -0 -1 -1 -0 0 0 0 0 0 0 0 0 nan
nan 0 0 0 0 0 0 0 0 0 0 0 0 -0 -0 -0 -0 -0 -0 -0 -0 -0 -0 -1 -1 -1 -1 -1 -0 0 -0 -1 -1 0 0 0 0 0 1 1 1 nan
nan 0 0 0 0 0 0 0 0 0 0 0 0 0 0 -0 -0 -0 -0 -0 -0 -0 -1 -1 -1 -1 -1 -1 -1 -1 -0 -0 -0 0 0 0 0 0 1 1 1 nan
nan 0 0 0 0 0 0 0 0 0 0 0 0 0 0 0 0 0 0 -0 -0 -0 -1 -1 -1 -1 -1 -1 -1 -1 -1 -1 -0 0 1 0 0 0 1 1 1 nan
nan 0 0 0 0 0 0 0 0 0 0 0 0 0 0 0 0 0 0 0 -0 -0 -0 -0 -1 -1 -1 -1 -1 -1 -1 -1 -0 0 0 1 1 1 1 1 0 nan
nan 0 0 0 0 0 0 0 0 0 0 0 0 0 0 0 0 0 0 0 -0 -0 -0 -0 -0 -0 -0 -1 -1 -1 -1 -0 -0 0 0 0 1 0 1 1 1 nan
nan 0 0 0 0 0 0 0 0 1 0 0 0 0 0 0 0 0 0 0 -0 -0 -0 -0 -0 -0 -0 -0 -1 -1 -1 -1 -1 -0 0 0 0 1 1 1 0 nan
nan 0 0 0 0 1 0 0 0 1 0 0 0 0 0 0 1 0 0 0 0 -0 -0 0 -0 -0 -0 -0 -0 -1 -1 -1 -0 -0 -0 -0 -0 0 0 0 0 nan
nan 1 1 1 1 1 0 0 0 0 0 0 0 0 1 1 0 0 0 0 0 -0 -0 0 0 -0 -0 -0 -0 -1 -1 -0 -0 -0 -0 -0 -0 -0 -0 -0 -0 nan
nan 1 1 1 1 1 0 0 0 0 0 0 0 0 0 1 1 0 0 0 0 0 0 -0 -0 -0 -0 0 0 -0 -1 -0 -0 -0 -0 -0 -1 -1 -1 -1 -1 nan
nan 0 1 1 1 1 0 0 0 0 0 0 0 0 0 1 1 0 0 -0 0 0 0 -0 -0 -0 -0 0 0 -0 -0 -0 -0 -0 -0 -0 -1 -1 -0 -1 -1 nan
nan 0 0 1 1 0 0 0 0 0 1 0 0 0 1 1 1 0 -0 -0 -0 -0 -0 -0 -0 -0 0 0 -0 -0 -0 0 -0 -0 0 -0 -0 -0 -0 -0 -0 nan
nan 0 1 1 1 0 0 0 0 0 0 0 0 0 1 1 1 0 0 0 -0 -1 -1 -1 -1 -0 0 0 -0 -0 -0 0 0 0 0 -0 -0 -0 -0 -1 -0 nan
nan 1 1 1 0 0 0 0 0 0 0 0 -0 0 1 1 1 1 1 0 -0 -1 -1 -1 -1 -0 0 0 -0 -0 -0 -0 0 0 -0 -0 -0 -0 -0 -0 -0 nan
nan 1 1 0 0 1 0 0 0 -0 0 0 0 0 0 0 1 1 1 0 -0 -0 -1 -1 -1 -0 0 0 0 -0 -1 -0 0 -0 -0 -0 -0 -0 -0 -0 -1 nan
nan 0 1 1 1 0 0 0 0 -0 0 1 1 0 0 0 1 1 1 0 -0 -0 -1 -1 -0 0 0 0 0 0 -0 -0 0 0 -0 -0 -0 -0 -0 -0 -0 nan
nan 0 0 0 0 0 0 0 0 0 0 1 0 0 0 0 1 1 1 0 0 -0 -0 -1 -0 0 0 0 0 0 0 0 -0 -0 -0 -0 0 0 -0 -0 0 nan
nan 0 0 0 0 0 -0 0 0 0 0 1 0 0 0 0 0 0 0 0 -0 0 0 -0 -0 0 0 0 -0 0 0 0 -0 -0 -0 -0 0 0 -0 -0 -0 nan
nan 0 0 0 0 -0 -0 0 0 0 0 0 0 0 -0 0 0 -0 -0 0 -0 -0 -0 -0 -1 -0 0 -0 -0 0 0 0 0 0 -0 -0 0 0 0 -0 -0 nan
nan 1 1 0 -0 -0 0 0 0 0 0 0 0 -0 -0 -0 -0 -0 -0 0 -0 -0 -0 -0 -1 -1 0 -0 -0 -0 0 0 0 0 0 0 0 0 0 0 -0 nan
nan nan nan nan nan nan nan nan nan nan nan nan nan nan nan nan nan nan nan nan nan nan nan nan nan nan nan nan nan nan nan nan nan nan nan nan nan nan nan nan nan nan
Wind_Speed
21 19 20 21 21 19 17 16 18 18 17 16 16 17 18 18 18 19 20 20 20 22 24 25 25 24 24 25 27 27 26 25 25 24 23 23 24 24 25 25 24 24
20 19 20 20 20 19 18 17 16 16 16 15 15 17 18 18 19 19 19 20 21 22 23 23 23 23 23 23 26 28 28 26 25 23 22 23 25 26 26 24 21 22
20 19 19 20 21 20 18 16 16 16 17 16 16 17 18 19 19 20 20 20 21 21 21 22 24 24 23 22 22 25 27 27 25 24 24 23 24 25 24 21 19 20
19 18 19 21 22 20 17 16 16 18 19 18 18 19 20 20 20 20 19 19 19 20 21 21 23 24 25 24 22 22 24 26 26 25 26 26 24 23 22 21 21 21
18 18 20 22 21 19 16 16 18 20 20 19 19 20 21 21 20 19 18 18 19 20 20 20 22 23 24 25 24 22 22 24 26 26 26 26 25 24 23 22 21 21
19 19 20 21 20 17 16 18 19 19 19 19 19 20 21 20 19 19 19 19 19 20 20 21 21 22 22 23 24 24 23 23 26 27 26 25 25 24 23 22 21 22
19 19 19 19 19 17 17 19 20 19 20 20 20 20 20 19 20 20 20 20 21 21 22 21 21 21 21 21 21 22 22 22 23 26 26 25 25 25 24 23 23 23
19 19 19 19 19 19 19 20 20 21 20 20 20 20 19 19 20 21 20 21 23 23 22 22 21 21 22 22 22 22 23 23 23 24 25 25 25 26 25 24 24 24
19 20 20 21 20 19 19 20 20 20 20 20 20 20 19 19 20 21 21 22 23 23 23 22 22 22 21 21 21 22 23 25 25 24 24 24 24 25 25 26 26 26
19 19 20 21 20 19 19 20 20 21 21 20 20 20 20 20 20 21 22 23 24 24 23 22 22 21 20 20 20 21 23 25 26 26 27 28 28 28 28 28 29 29
19 19 20 20 20 19 20 20 21 21 21 20 20 20 21 21 22 23 24 25 25 24 23 22 22 21 21 21 20 21 23 25 26 28 29 30 30 29 29 29 29 30
19 19 19 19 20 21 20 20 21 21 21 20 20 21 21 22 23 25 25 26 26 25 24 23 23 22 22 22 21 21 22 24 26 27 27 27 27 27 27 28 28 29
20 20 21 22 23 22 20 20 21 21 21 21 21 21 22 23 24 27 28 28 27 25 24 25 24 24 24 24 23 22 23 23 24 25 26 27 28 28 28 29 29 30
21 23 23 23 23 21 20 20 20 20 21 21 21 22 23 24 26 29 30 29 27 26 26 26 27 27 28 27 25 24 25 26 27 27 28 30 32 33 33 34 34 34
22 23 22 22 22 21 20 20 20 19 19 21 22 24 25 28 30 31 31 29 27 27 26 27 29 29 29 27 25 25 27 29 30 31 32 33 34 34 34 34 34 33
22 23 23 23 23 21 20 19 19 19 20 23 25 27 30 32 32 30 30 29 28 27 28 28 28 28 27 25 24 24 25 27 28 29 29 30 30 30 30 30 30 30
23 23 24 24 22 20 18 19 20 21 24 26 28 31 33 32 30 29 30 30 28 27 27 27 26 25 24 24 23 23 24 26 27 28 28 29 29 29 29 29 28 28
24 23 24 23 20 19 19 20 22 24 26 29 31 33 32 30 28 29 30 29 27 27 27 27 26 25 23 23 23 24 24 25 26 27 27 28 28 27 27 26 25 25
23 22 21 19 19 19 20 22 25 27 29 31 32 31 30 28 28 28 28 26 25 26 28 28 27 24 22 22 22 22 22 23 24 25 25 26 26 25 25 24 24 24
21 19 18 19 20 21 23 25 27 29 31 30 30 29 28 28 27 26 25 25 25 27 28 29 26 23 21 20 20 21 21 22 22 23 24 24 25 25 25 25 24 24
19 18 19 21 22 23 25 28 29 30 30 28 28 28 28 27 26 24 24 24 25 27 28 27 25 21 20 19 19 20 20 20 21 22 23 24 25 25 24 22 21 23
18 20 22 24 25 27 28 30 30 29 28 27 27 27 26 25 24 24 24 25 26 26 26 25 23 20 19 18 18 18 17 18 20 20 20 21 21 19 18 18 20 23
21 23 25 26 28 29 30 29 28 27 26 25 25 25 25 25 25 25 25 26 26 25 24 23 21 19 18 18 17 14 13 14 16 17 19 19 16 13 15 18 19 20
24 26 27 28 28 29 29 28 27 26 25 23 23 24 24 24 25 26 26 26 26 24 23 22 22 20 18 17 15 10 8 12 16 18 19 18 15 12 14 16 16 16
26 26 27 28 28 28 27 27 26 24 23 22 22 23 24 24 25 26 26 26 25 24 23 22 22 20 17 16 13 8 7 13 17 16 16 16 14 12 14 16 15 13
25 26 27 27 27 27 27 26 25 23 22 22 22 23 24 25 25 25 26 25 23 23 22 21 22 20 17 14 11 8 6 12 15 13 12 13 13 13 14 14 12 10
Wind_Direction
314 310 304 304 306 308 305 296 293 297 303 306 307 307 307 307 308 306 304 301 297 292 292 294 293 294 293 284 277 274 274 275 279 282 281 276 274 276 281 287 291 292
310 304 302 303 304 304 301 298 295 296 298 299 301 302 301 303 306 307 307 308 307 305 304 304 300 296 294 290 282 276 271 269 273 278 279 276 273 274 278 282 283 285
307 303 299 298 301 302 300 296 293 291 292 293 294 293 292 295 298 300 303 306 306 306 306 305 304 302 299 295 291 283 272 265 267 270 270 272 275 277 278 276 272 274
303 298 290 292 298 298 296 293 289 287 289 290 288 286 287 290 294 297 300 301 301 301 303 303 303 303 301 299 298 292 277 263 260 263 264 265 268 270 271 269 267 266
296 288 284 290 295 294 291 287 283 286 291 293 289 288 291 295 297 298 296 294 293 294 296 297 297 297 299 299 297 294 285 269 260 259 261 263 265 266 266 265 265 265
290 284 284 290 294 292 287 284 285 288 292 291 290 293 299 301 299 295 292 290 289 288 287 287 289 290 292 296 295 291 287 278 268 261 259 259 260 263 265 262 261 262
285 283 283 285 288 287 283 283 285 287 287 285 286 292 298 299 297 295 292 291 289 290 290 288 286 285 283 285 288 288 286 283 275 265 260 259 257 258 259 257 258 261
281 282 282 279 280 278 277 279 281 283 284 285 287 292 295 293 292 292 291 293 296 297 297 293 287 283 279 275 276 281 282 279 273 263 258 257 256 254 254 254 259 263
279 281 281 279 280 279 278 278 280 282 284 287 289 291 291 290 292 292 289 293 300 299 298 298 293 287 283 279 275 275 275 271 266 259 255 255 255 255 257 258 260 260
280 282 283 283 283 283 282 280 280 281 283 285 287 288 290 291 290 288 288 293 298 298 297 299 298 294 291 285 275 269 268 266 262 258 258 260 263 263 262 260 260 261
281 283 284 286 286 284 284 282 279 279 280 281 283 287 290 289 287 285 288 295 299 299 297 294 295 295 293 290 283 272 266 265 264 264 265 266 266 265 263 264 266 269
281 283 282 283 280 278 279 278 275 276 277 278 280 284 286 284 284 287 292 297 299 297 294 291 291 289 287 289 290 284 275 270 268 267 265 263 262 261 263 266 270 274
278 277 276 276 275 276 276 273 271 273 275 277 279 282 283 282 285 290 293 295 296 293 288 286 286 284 282 284 286 284 280 275 270 268 267 265 265 267 269 272 275 278
273 275 277 277 276 278 278 273 270 272 275 276 278 278 277 279 286 291 292 292 292 290 284 280 281 282 284 286 285 278 272 269 267 266 266 268 271 274 276 277 279 279
281 286 285 279 276 279 280 277 275 276 276 274 273 272 273 283 291 291 290 291 292 289 285 283 285 288 290 289 285 278 273 273 274 273 274 276 278 281 282 281 282 282
284 286 281 275 275 280 280 277 275 275 274 270 269 272 281 291 295 292 290 293 294 292 288 289 292 294 294 291 285 282 283 285 285 283 282 282 282 283 283 284 285 285
282 278 273 272 275 278 275 271 270 270 270 270 273 282 291 296 295 292 292 294 294 291 289 292 296 297 297 294 288 284 284 283 281 280 279 279 280 279 279 280 281 282
282 274 271 272 275 274 271 270 269 268 271 275 283 291 296 297 293 290 291 293 294 292 292 297 301 302 300 294 288 285 283 282 281 281 281 281 282 281 281 282 282 283
280 275 273 272 270 268 269 269 270 274 280 286 292 297 298 296 295 294 293 294 292 290 294 299 303 305 303 297 293 291 288 285 284 283 281 281 281 280 279 277 276 275
279 276 270 267 266 268 271 273 278 285 291 295 297 298 297 297 297 296 294 291 288 288 293 300 304 306 304 300 298 294 290 288 285 281 278 276 274 273 272 272 272 271
276 270 264 264 267 271 276 282 288 294 297 297 297 296 297 297 298 297 293 289 288 291 296 301 305 307 305 302 298 293 290 289 283 277 275 272 270 270 271 272 272 270
268 264 264 267 272 278 284 290 294 297 298 298 297 297 298 299 298 297 294 292 293 295 298 301 303 304 305 302 296 292 290 286 282 280 280 279 278 276 273 271 269 270
262 264 269 274 281 286 291 294 296 298 300 299 298 298 300 300 300 299 297 297 297 298 299 300 301 303 306 303 296 291 287 286 288 291 292 292 289 277 269 270 273 276
266 271 276 282 287 290 293 296 298 299 300 299 298 299 299 300 301 301 300 299 298 298 301 302 303 306 307 303 295 283 282 293 294 292 292 293 292 278 269 275 281 283
272 277 282 286 290 293 295 297 298 299 298 297 297 298 299 300 301 300 300 299 298 298 301 301 303 305 304 300 288 264 281 302 296 287 287 289 283 268 263 274 286 291
278 282 287 290 293 295 296 296 296 296 296 296 297 298 299 300 300 299 299 299 297 295 296 297 301 302 300 295 274 245 276 306 297 286 284 276 261 253 259 272 285 284
Height
1503 1502 1501 1500 1498 1497 1496 1495 1494 1493 1492 1491 1490 1489 1488 1487 1486 1486 1485 1484 1483 1482 1481 1480 1479 1479 1478 1477 1477 1476 1475 1475 1474 1474 1474 1473 1472 1471 1470 1470 1469 1468
1501 1500 1499 1497 1496 1495 1494 1493 1491 1490 1490 1489 1488 1487 1486 1485 1484 1483 1482 1481 1480 1479 1478 1477 1476 1476 1475 1474 1474 1473 1472 1472 1471 1472 1472 1471 1470 1469 1468 1468 1467 1465
1498 1497 1496 1495 1493 1492 1491 1490 1489 1488 1487 1486 1486 1484 1483 1482 1482 1481 1480 1479 1478 1477 1476 1474 1473 1472 1472 1471 1471 1470 1469 1469 1469 1469 1469 1469 1468 1467 1466 1466 1465 1463
1496 1495 1493 1492 1491 1490 1489 1488 1487 1486 1485 1484 1483 1482 1480 1480 1479 1478 1477 1476 1476 1475 1474 1473 1471 1470 1469 1468 1468 1467 1466 1466 1466 1466 1466 1465 1465 1465 1464 1463 1462 1461
1494 1493 1491 1490 1489 1488 1487 1486 1484 1483 1482 1481 1480 1479 1478 1477 1476 1475 1474 1473 1473 1472 1471 1470 1469 1468 1467 1466 1465 1464 1463 1463 1463 1463 1462 1462 1462 1461 1461 1460 1459 1458
1491 1490 1489 1487 1486 1485 1484 1483 1482 1481 1480 1479 1477 1476 1475 1474 1473 1472 1471 1470 1469 1468 1468 1467 1466 1466 1465 1464 1462 1461 1461 1460 1460 1460 1459 1458 1458 1458 1458 1457 1456 1455
1488 1487 1486 1485 1484 1483 1482 1481 1480 1479 1477 1476 1475 1474 1473 1472 1471 1469 1468 1467 1466 1465 1465 1464 1463 1463 1462 1461 1460 1458 1458 1457 1457 1456 1456 1455 1455 1454 1454 1453 1453 1452
1486 1485 1484 1483 1482 1481 1480 1478 1477 1476 1475 1473 1472 1471 1470 1469 1468 1467 1466 1464 1463 1463 1462 1461 1460 1459 1459 1458 1457 1456 1455 1454 1454 1453 1452 1451 1451 1450 1450 1450 1450 1449
1483 1482 1481 1480 1479 1478 1477 1476 1475 1473 1472 1471 1470 1469 1468 1466 1465 1464 1463 1462 1461 1460 1459 1457 1456 1456 1455 1454 1454 1453 1452 1451 1450 1449 1448 1448 1447 1447 1447 1447 1446 1445
1480 1479 1478 1477 1476 1475 1474 1473 1472 1471 1469 1468 1467 1466 1465 1464 1463 1461 1460 1459 1458 1457 1456 1454 1453 1452 1451 1450 1450 1449 1448 1447 1446 1446 1445 1445 1444 1444 1444 1443 1443 1442
1477 1476 1475 1474 1473 1472 1471 1470 1469 1468 1467 1465 1464 1463 1462 1461 1460 1458 1457 1456 1455 1454 1453 1452 1450 1449 1448 1447 1446 1445 1445 1444 1443 1443 1442 1442 1441 1441 1440 1440 1439 1438
1474 1473 1472 1471 1470 1469 1468 1467 1466 1464 1463 1462 1462 1460 1459 1458 1457 1455 1454 1453 1452 1451 1449 1448 1447 1446 1445 1444 1443 1442 1441 1441 1440 1439 1438 1438 1437 1437 1436 1436 1435 1435
1471 1470 1469 1468 1466 1465 1465 1464 1462 1462 1460 1459 1459 1458 1456 1455 1454 1452 1451 1450 1449 1448 1446 1445 1444 1443 1442 1440 1440 1439 1438 1437 1436 1435 1434 1434 1433 1433 1433 1432 1432 1431
1467 1466 1465 1464 1463 1462 1461 1460 1459 1458 1457 1456 1456 1454 1453 1452 1451 1449 1448 1446 1445 1444 1443 1442 1440 1439 1438 1437 1436 1436 1435 1433 1432 1432 1431 1430 1430 1429 1429 1428 1427 1427
1464 1463 1461 1460 1459 1458 1458 1457 1456 1455 1454 1453 1452 1451 1449 1448 1447 1445 1443 1442 1441 1440 1439 1437 1436 1435 1434 1433 1432 1431 1430 1429 1428 1428 1427 1426 1425 1424 1423 1423 1423 1422
1461 1460 1458 1457 1456 1455 1455 1454 1453 1452 1451 1450 1448 1447 1446 1444 1443 1441 1439 1438 1436 1435 1434 1433 1432 1431 1430 1429 1428 1427 1427 1425 1424 1423 1423 1422 1421 1420 1419 1419 1419 1418
1457 1456 1455 1453 1453 1452 1452 1451 1450 1449 1447 1446 1444 1443 1442 1440 1438 1436 1435 1434 1432 1431 1430 1429 1428 1427 1426 1425 1425 1425 1424 1422 1421 1420 1419 1418 1417 1416 1416 1415 1415 1415
1453 1452 1451 1450 1450 1449 1449 1448 1446 1445 1443 1442 1441 1439 1437 1436 1434 1432 1431 1429 1428 1427 1426 1425 1424 1423 1422 1422 1421 1420 1420 1419 1418 1416 1415 1414 1414 1413 1412 1412 1412 1412
1450 1449 1448 1447 1447 1446 1445 1444 1442 1441 1440 1438 1436 1435 1433 1431 1430 1428 1427 1426 1425 1423 1422 1421 1420 1420 1419 1418 1417 1416 1416 1415 1414 1413 1412 1411 1410 1410 1409 1409 1409 1409
1446 1445 1445 1444 1443 1442 1441 1440 1438 1437 1435 1434 1432 1430 1429 1427 1426 1425 1424 1423 1422 1420 1419 1418 1417 1416 1415 1414 1413 1413 1412 1412 1411 1410 1409 1408 1407 1406 1406 1406 1406 1405
1443 1442 1442 1441 1440 1439 1437 1436 1435 1433 1431 1430 1428 1427 1425 1423 1422 1421 1420 1419 1418 1417 1416 1414 1414 1413 1412 1411 1410 1409 1409 1409 1407 1406 1405 1404 1403 1403 1402 1402 1403 1402
1440 1439 1438 1437 1436 1435 1434 1432 1431 1429 1428 1426 1424 1423 1422 1420 1419 1418 1417 1416 1415 1414 1412 1411 1411 1410 1409 1408 1407 1406 1406 1405 1404 1402 1401 1400 1399 1399 1400 1400 1400 1399
1437 1435 1434 1433 1432 1431 1430 1428 1427 1425 1424 1423 1421 1419 1418 1417 1416 1415 1414 1413 1411 1410 1409 1408 1407 1407 1407 1405 1404 1403 1403 1402 1401 1400 1398 1398 1397 1397 1397 1398 1397 1397
1433 1432 1431 1430 1429 1427 1426 1424 1423 1422 1421 1420 1418 1416 1415 1414 1413 1411 1410 1409 1408 1407 1406 1405 1404 1404 1404 1402 1402 1401 1401 1400 1399 1398 1396 1396 1395 1395 1395 1395 1395 1394
1429 1428 1427 1426 1425 1423 1422 1421 1419 1418 1417 1416 1415 1414 1412 1411 1410 1408 1407 1406 1405 1404 1404 1402 1401 1401 1401 1400 1399 1399 1399 1399 1397 1395 1394 1394 1393 1394 1394 1393 1393 1392
1426 1425 1424 1422 1421 1420 1419 1417 1416 1415 1414 1413 1412 1411 1409 1408 1407 1406 1404 1403 1402 1402 1401 1400 1399 1398 1398 1398 1397 1397 1397 1397 1395 1394 1393 1392 1392 1392 1392 1392 1391 1391